1,427,585개(29581/71380페이지)
LECTURE
번호 제목 글쓴이 조회 날짜
835985 Another reason to use web-based applicat 사진 CreechFranco2516 0 2022.02.20 17:02
835984 Sixty Ideas To Grow Your Exipure Opinion GustafssonHo1353 3 2022.02.20 17:01
835983 Technique For Maximizing 301 Redirect TuttleEstes7529 5 2022.02.20 17:01
835982 Playing Online Poker And Keeping Track O NealBates0163 2 2022.02.20 17:01
835981 Poker Rules For New Players HessellundLindgreen4497 2 2022.02.20 17:01
835980 DAKING. CO - OFFERING TOOL AND ACCOUNT F GarrettFunder9003 3 2022.02.20 17:01
835979 精彩小说 最強狂兵 烈焰滔滔- 第4909章 调虎离山! 忍一時風平浪靜 恬淡寡 사진 TierneyGalloway9796 6 2022.02.20 17:00
835978 Italian food is packed with health benef 사진 BlandGarrison9495 2 2022.02.20 17:00
835977 สูตรหวยฮานอยวันนี้ 사진 CollierFarah4013 12 2022.02.20 17:00
835976 Język Polski, Religia 사진 UdsenPoe2163 4 2022.02.20 17:00
835975 Poker Head Games In Texas Hold'em FloresNikolajsen5687 8 2022.02.20 17:00
835974 Attempt Some Online Video XXX Marketing FultonHussein6992 7 2022.02.20 16:59
835973 Best Konveksi Medan To Make Your Dreams StuartLyhne6852 1 2022.02.20 16:59
835972 Małżeństwo Z Turkiem. Jak żyją Polki, Kt 사진 HolckMendez4325 5 2022.02.20 16:59
835971 301 Redirect WordPress: Step-by-Step Inf MaurerSigmon9376 8 2022.02.20 16:59
835970 The Benefits Associated With Massage For CharlesFinch3431 9 2022.02.20 16:59
835969 An Online Poker Bonus - Why Do Sites Off WestJacobson1376 7 2022.02.20 16:58
835968 keutamaan belajar teknik main slots onli KochConway7647 5 2022.02.20 16:58
835967 Betting On Sports - How To Bet On Sports HarboeGalloway7277 6 2022.02.20 16:58
835966 Electropolishing for Stainless Steel Cas BengtssonMcKay0736 8 2022.02.20 16:57